Tracking 28790 objects as of 18-Apr-2024
HD Live streaming from Space Station
objects crossing your sky now

INTELSAT 804

Track INTELSAT 804 now!
INTELSAT 804 is classified as:


NORAD ID: 25110
Int'l Code: 1997-083A
Perigee: 35,773.1 km
Apogee: 35,837.7 km
Inclination: 12.3 °
Period: 1,436.7 minutes
Semi major axis: 42176 km
RCS: 10.0118 m2 (large)
Launch date: December 21, 1997
Source: International Telecommunications Satellite Organization (ITSO)
Launch site: FRENCH GUIANA (FRGUI)
Your satellite tracking list
Your tracking list is empty




NASA's NSSDC Master Catalog

Two Line Element Set (TLE):
1 25110U 97083A   24109.04424610 -.00000176  00000-0  00000-0 0  9998
2 25110  12.3466  23.1827 0007654  26.8729 153.2460  1.00230319 96412
Source of the keplerian elements: AFSPC